#timestamp,LO_Frequency,Hit,StdDev 
1456099215.2,286047012.9,N
1456099235.0,286047012.8,N
1456099235.9,286047012.8,N
1456099255.8,286047015.3,Y
1456099275.6,286047010.8,P
1456099295.4,286047009.5,P
1456099315.2,286047010.1,P
1456099335.1,286047012.8,Y
1456099336.0,286047012.8,P
1456099355.8,286047005.8,P
1456099375.7,286047003.8,N
1456099395.5,286047007.3,N
1456099415.3,286047003.1,N
1456099435.1,286047005.7,N
1456099455.9,286047010.4,Y
1456099475.7,286047000.8,P
1456099495.5,286047000.2,N
1456099515.4,286047001.6,N
1456099535.2,286047002.3,N
1456099555.0,286047001.3,N
1456099555.9,286047001.3,N
1456099575.8,286047002.8,N
1456099595.6,286047000.9,N
1456099615.4,286047004.4,N
1456099635.3,286047004.1,N
1456099655.1,286047002.2,N
1456099656.0,286047002.2,N
1456099675.8,286047004.3,N
1456099695.7,286047003.0,N
1456099715.5,286047001.4,N
1456099735.3,286047001.3,N
1456099755.1,286047003.1,N
1456099775.9,286047003.7,N
1456099795.7,286047001.9,N
1456099815.5,286047002.1,N
1456099835.4,286047001.2,N
1456099855.2,286047002.0,N
1456099875.0,286047002.3,N
1456099875.9,286047002.3,N
1456099895.8,286047004.1,N
1456099915.6,286047003.9,N
1456099935.4,286047003.2,N
1456099955.3,286047003.9,N
1456099975.1,286047004.3,Y
1456099995.8,286046999.2,P
1456100015.7,286047002.7,N
1456100035.5,286047002.1,N
1456100055.3,286046999.9,N
1456100075.2,286047001.1,N
1456100095.9,286046995.8,Y
1456100115.7,286046991.8,P
1456100135.6,286046992.9,N
1456100155.4,286046989.1,N
1456100175.2,286046987.3,N
1456100195.1,286046987.1,N
1456100196.0,286046987.1,N
1456100215.8,286046989.1,N
1456100235.6,286046987.4,N
1456100255.4,286046987.0,N
1456100275.3,286046988.4,N
1456100295.1,286046983.9,Y
1456100315.8,286046996.2,P
1456100335.7,286046996.4,N
1456100355.5,286046992.2,N
1456100375.3,286046996.4,N
1456100395.2,286046995.1,N
1456100415.9,286046996.7,N
1456100435.7,286046998.3,N
1456100455.6,286046998.3,N
1456100475.4,286047000.5,N
1456100495.2,286047001.2,N
1456100515.1,286047002.4,N
1456100516.0,286047002.4,N
1456100535.8,286047002.4,N
1456100555.6,286047003.2,N
1456100575.4,286047002.8,N
1456100595.3,286047004.1,N
1456100615.1,286047003.1,N
1456100635.8,286047004.7,N
1456100655.7,286047003.1,N
1456100675.5,286047005.5,N
1456100695.3,286047002.9,N
1456100715.2,286047003.3,N
1456100735.9,286047001.5,N
1456100755.7,286047002.6,N
1456100775.6,286047003.5,N
1456100795.4,286047002.2,N
1456100815.2,286047003.9,N
1456100835.0,286047001.5,N
1456100836.0,286047001.5,N
1456100855.8,286047003.5,N
1456100875.6,286047003.0,N
1456100895.4,286047004.2,N
1456100915.3,286047002.6,N
1456100935.1,286047001.0,N
1456100955.8,286046999.6,N
1456100975.7,286046997.5,N
1456100995.5,286046991.9,Y
1456101015.3,286046989.2,P
1456101035.2,286046991.0,N
1456101055.9,286046991.7,N
1456101075.7,286046990.1,N
1456101095.6,286046991.5,N
1456101115.4,286046990.6,N
1456101135.2,286046994.2,N
1456101155.1,286046994.5,N
1456101156.0,286046994.5,N
1456101175.8,286046996.4,N
1456101195.6,286046996.2,N
1456101215.5,286046993.3,N
1456101235.3,286046995.5,N
1456101255.1,286046994.0,N
1456101275.8,286046992.8,N
1456101295.7,286046991.4,N
1456101315.5,286046992.7,N
1456101335.3,286046991.5,N
1456101355.2,286046988.9,Y
1456101375.0,286046993.3,P
1456101375.9,286046993.3,P
1456101395.7,286046996.3,P
1456101415.6,286046995.7,Y
1456101435.4,286046999.9,P
1456101455.2,286046998.1,N
1456101475.1,286046996.7,N
1456101476.0,286046996.7,N
1456101495.8,286046999.4,N
1456101515.6,286046998.8,N
1456101535.5,286046998.4,N
1456101555.3,286046997.3,N
1456101575.1,286046995.3,N
1456101595.9,286046993.8,Y
1456101615.7,286046996.5,P
1456101635.5,286046999.5,N
1456101655.4,286046996.9,N
1456101675.2,286047001.0,N
1456101695.0,286047002.3,N
1456101695.9,286047002.3,N
1456101715.8,286047000.4,N
1456101735.6,286046998.1,N
1456101755.4,286047001.0,N
1456101775.3,286047002.4,N
1456101795.1,286047005.1,N
1456101796.0,286047005.1,N
1456101815.8,286047006.6,N
1456101835.7,286047007.8,N
1456101855.5,286047014.0,Y
1456101875.3,286047007.8,P
1456101895.2,286047010.3,P
1456101915.9,286047007.8,N
1456101935.7,286047008.6,N
1456101955.5,286047008.4,N
1456101975.4,286047008.9,Y
1456101995.2,286047001.5,P
1456102015.0,286047004.4,N
1456102016.0,286047004.4,N
1456102035.8,286047006.0,N
1456102055.6,286047004.3,N
1456102075.4,286047004.4,N
1456102095.3,286047003.8,N
1456102115.1,286047002.9,N
1456102135.8,286047007.2,Y
1456102155.7,286047003.0,P
1456102175.5,286047004.2,P
1456102195.3,286047002.4,P
1456102215.2,286046998.2,N
1456102235.9,286047002.8,N
1456102255.7,286047001.6,N
1456102275.6,286047002.5,N
1456102295.4,286047002.4,N
1456102315.2,286047002.0,N
1456102335.1,286047003.0,N
1456102336.0,286047003.0,N
1456102355.8,286047006.0,Y
1456102375.6,286047000.3,P
1456102395.5,286047000.3,N
1456102415.3,286047000.1,N
1456102435.1,286046999.4,N
1456102455.9,286046998.8,N
1456102475.7,286046996.8,N
1456102495.5,286046996.3,N
1456102515.3,286046998.0,N
1456102535.2,286046993.4,Y
1456102555.0,286046996.4,P
1456102555.9,286046996.4,N
1456102575.7,286046994.0,P
1456102595.6,286046994.7,N
1456102615.4,286046992.6,Y
1456102635.2,286046994.0,P
1456102655.1,286046995.6,P
1456102656.0,286046995.6,P
1456102675.8,286046994.3,Y
1456102695.7,286046996.9,P
1456102715.5,286046998.7,N
1456102735.3,286046997.7,N
1456102755.2,286047001.2,N
1456102775.9,286046996.5,N
1456102795.7,286046994.9,N
